Home   Weather   Bad Nauheim   Past weeks

Flag for Germany Past Weather in Bad Nauheim, Hesse, Germany — Yesterday and Last 2 Weeks

Now
36 °F

Clear.


Feels Like: 36 °F
Forecast: 37 / 55 °F
Wind: 2 mph from North

Location: Frankfurt-M-Flughafen Airport

Current Time: Apr 28, 2017 at 4:49:13 am

Latest Report: Apr 28, 2017 at 4:20 am


Visibility: 10 mi

Pressure: 29.92 "Hg

Humidity: 70%

Dew Point: 27 °F

Location of Bad NauheimLocation

Past Weather in Bad Nauheim — Graph

°F

Bad Nauheim Temperature Yesterday

Maximum temperature yesterday: 55 °F (at 4:20 pm)
Minimum temperature yesterday: 36 °F (at 6:50 am)
Average temperature yesterday: 47 °F

High & Low Weather Summary for the Past Weeks

 TemperatureHumidityPressure
High63 °F (Apr 24, 5:20 pm)100% (Apr 17, 10:20 am)30.60 "Hg (Apr 17, 10:20 am)
Low27 °F (Apr 20, 4:20 am)24% (Apr 26, 4:20 pm)29.68 "Hg (Apr 25, 3:50 am)
Average47 °F60%30.12 "Hg
* Reported Apr 13 3:20 am — Apr 28 3:20 am, Bad Nauheim, Weather by CustomWeather, © 2017

Note: Actual official high and low records may vary slightly from our data, if they occured in-between our weather recording intervals... More about our weather records

Advertising

Bad Nauheim Weather History for the Previous 24 Hours

Scroll right to see more
 ConditionsComfort  
Time TempWeatherWind HumidityBarometerVisibility
3:20 am
Fri, Apr 28
39 °FClear.5 mph61%29.92 "Hg10 mi
2:50 am41 °FClear.9 mph57%29.92 "Hg10 mi
2:20 am41 °FClear.5 mph53%29.95 "Hg10 mi
1:50 am43 °FClear.9 mph49%29.95 "Hg10 mi
1:20 am43 °FClear.8 mph53%29.95 "Hg10 mi
12:50 am39 °FClear.6 mph65%29.95 "Hg10 mi
12:20 am39 °FClear.6 mph65%29.95 "Hg10 mi
11:50 pm
Thu, Apr 27
41 °FClear.1 mph66%29.95 "Hg10 mi
11:20 pm41 °FQuite cool.3 mph66%29.95 "HgN/A
10:50 pm41 °FPassing clouds.6 mph66%29.95 "HgN/A
10:20 pm41 °FClear.3 mph66%29.95 "Hg10 mi
9:50 pm41 °FPassing clouds.5 mph61%29.95 "HgN/A
9:20 pm43 °FPassing clouds.5 mph57%29.95 "HgN/A
8:50 pm48 °FClear.6 mph43%29.95 "Hg10 mi
8:20 pm48 °FPassing clouds.5 mph46%29.95 "HgN/A
7:50 pm50 °FScattered showers. Scattered clouds.7 mph43%29.95 "HgN/A
7:20 pm52 °FScattered showers. Scattered clouds.8 mph38%29.95 "HgN/A
6:50 pm52 °FScattered showers. Scattered clouds.7 mph38%29.95 "HgN/A
6:20 pm54 °FScattered showers. Scattered clouds.10 mph35%29.95 "HgN/A
5:50 pm54 °FSprinkles. Scattered clouds.3 mph35%29.95 "HgN/A
5:20 pm52 °FSprinkles. Scattered clouds.6 mph44%29.95 "HgN/A
4:50 pm54 °FSprinkles. Scattered clouds.8 mph35%29.95 "HgN/A
4:20 pm55 °FSprinkles. Scattered clouds.7 mph33%29.95 "HgN/A
3:50 pm54 °FSprinkles. Scattered clouds.5 mph35%29.95 "HgN/A
3:20 pm52 °FSprinkles. Scattered clouds.10 mph41%29.95 "HgN/A
2:50 pm54 °FSprinkles. Scattered clouds.6 mph38%29.95 "HgN/A
2:20 pm52 °FSunny.2 mph41%29.95 "Hg10 mi
1:50 pm52 °FSunny.6 mph41%29.95 "Hg10 mi
1:20 pm52 °FScattered showers. Scattered clouds.5 mph44%29.95 "HgN/A
12:50 pm52 °FScattered showers. Scattered clouds.6 mph44%29.98 "HgN/A
12:20 pm50 °FSprinkles. Scattered clouds.5 mph47%29.98 "HgN/A
11:50 am50 °FScattered clouds.9 mph50%29.98 "HgN/A
11:20 am48 °FPassing clouds.5 mph50%29.98 "HgN/A
10:50 am50 °FScattered clouds.6 mph50%29.98 "HgN/A
10:20 am50 °FScattered clouds.6 mph50%29.98 "HgN/A
9:50 am46 °FBroken clouds.3 mph57%29.98 "HgN/A
9:20 am45 °FBroken clouds.1 mph61%29.98 "HgN/A
8:50 am43 °FSunny.2 mph66%29.98 "Hg10 mi
8:20 am41 °FPassing clouds.3 mph70%29.98 "HgN/A
7:50 am41 °FSunny.2 mph70%29.98 "Hg10 mi
6:50 am36 °FSunny.2 mph81%29.95 "Hg10 mi
6:20 am37 °FPassing clouds.5 mph75%29.95 "HgN/A
5:50 am37 °FClear.2 mph75%29.95 "Hg10 mi
4:50 am39 °FPassing clouds.3 mph70%29.92 "HgN/A
Weather by CustomWeather, © 2017

See weather overviewHow to use our weather pages